Regional Weather Roundup
Issued by NWS State College, PA

Home | Current Version | Previous Version | Text Only | Print | Product List | Glossary On
Versions: 1 2 3 4 5 6 7 8 9 10 11 12 13 14 15 16 17 18 19 20 21 22 23 24 25 26 27 28 29 30 31 32 33 34 35 36 37 38 39 40 41 42 43 44 45 46 47 48 49 50
000
ASUS41 KCTP 272210
RWRCTP

REGIONAL WEATHER ROUNDUP
NATIONAL WEATHER SERVICE STATE COLLEGE PA
600 PM EDT SAT MAY 27 2017

Note: "fair" indicates few or no clouds below 12,000 feet with no
significant weather and/or obstructions to visibility.

* = STATION THAT DOES NOT REPORT PRECIPITATION /E.G. RAIN...SNOW...ETC/
    THUNDER OR FOG.

PAZ002>004-007>009-013>016-020>023-029>032-272300-
WESTERN PENNSYLVANIA

CITY           SKY/WX    TMP DP  RH WIND       PRES   REMARKS
ERIE           SUNNY     65  53  65 N6        29.92R
MEADVILLE      CLOUDY    71  55  56 NW8       29.91R
FRANKLIN*      PTSUNNY   73  54  49 W7        29.90S
NEW CASTLE     CLOUDY    71  59  65 CALM      29.90S
BEAVER COUNTY  NOT AVBL
BUTLER*        CLOUDY    72  59  64 W5        29.90S
PITTSBURGH INT MOSUNNY   71  62  73 SW3       29.89R
PITTSBURGH     PTSUNNY   70  59  68 CALM      29.89S
INDIANA*       CLOUDY    68  61  77 W3        29.93R
LATROBE        PTSUNNY   68  63  83 W9        29.90F
WASHINGTON CO* PTSUNNY   70  61  73 CALM      29.91S
$$

PAZ004>006-010>012-017>019-024>028-033>037-041-042-045-046-049>053-272300-
CENTRAL PENNSYLVANIA

CITY           SKY/WX    TMP DP  RH WIND       PRES   REMARKS
BRADFORD       MOSUNNY   67  52  58 VRB3      29.91R
DUBOIS         CLOUDY    68  55  63 SW8       29.90R
CLEARFIELD     CLOUDY    70  58  65 SW6       29.89R
JOHNSTOWN      CLOUDY    65  59  81 W6        29.91F
ALTOONA        PTSUNNY   68  60  75 SW5       29.90F
STATE COLLEGE  MOSUNNY   70  57  64 SW9       29.88F
WILLIAMSPORT   MOSUNNY   73  56  54 SE6       29.84F
SELINSGROVE    PTSUNNY   71  56  58 S5        29.87F
FT INDIANTOWN  CLOUDY    72  56  56 SW5       29.88S
CAPITAL CITY   CLOUDY    71  57  61 SW6       29.88F
HARRISBURG     PTSUNNY   70  59  68 SW5       29.88S
YORK           CLOUDY    63  61  93 CALM      29.90S
$$

PAZ038>040-043-044-047-048-054-055-060>062-067>071-272300-
EASTERN PENNSYLVANIA

CITY           SKY/WX    TMP DP  RH WIND       PRES   REMARKS
SCRANTON       CLOUDY    70  54  56 W3        29.88S
MOUNT POCONO   PTSUNNY   65  51  60 N7        29.90F
ALLENTOWN      MOSUNNY   73  54  51 W5        29.87F
QUAKERTOWN*    MOCLDY    72  55  56 W6        29.89F
READING        PTSUNNY   73  56  54 CALM      29.87S
LANCASTER      CLOUDY    71  59  65 SW7       29.89S
COATESVILLE    MOCLDY    68  57  68 SW3       29.92R
POTTSTOWN      PTSUNNY   71  54  54 NW6       29.89S
BLUE BELL      MOSUNNY   70  55  60 W3        29.90S
DOYLESTOWN     MOSUNNY   73  54  51 VRB6      29.88S
WILLOW GROVE   NOT AVBL
NORTH PHILA    CLOUDY    74  54  49 W7        29.89S
PHILADELPHIA   PTSUNNY   71  55  56 SW10      29.90S
$$



USA.gov is the U.S. government's official web portal to all federal, state and local government web resources and services.